Konya, Turkey

2:17 PM +03 on April 22, 2018 (GMT +0300)
Konya Air Base

Weather History for LTAN - November, 2013

Change the Weather History Date:

Friday, November 29, 2013

  Actual Average Record
Temperature  
Mean Temperature 38 °F -  
Max Temperature 46 °F 44 °F 64 °F (2005)
Min Temperature 28 °F 28 °F 21 °F (2002)
Degree Days  
Heating Degree Days 27    
Moisture  
Dew Point 31 °F    
Average Humidity 73    
Maximum Humidity 87    
Minimum Humidity 45    
Precipitation  
Precipitation 0.00 in 0.06 in - ()
Sea Level Pressure  
Sea Level Pressure 30.05 in    
Wind  
Wind Speed 9 mph ()    
Max Wind Speed 16 mph    
Max Gust Speed -    
Visibility 7.4 miles    
Events Rain    
Averages and records for this station are not official NWS values.
T = Trace of Precipitation, MM = Missing Value Source: Averaged Metar Reports

Daily Weather History Graph

Daily Weather History Graph

Search for Another Location

Airport or City:

Astronomy

Nov. 29, 2013 Rise Set
Actual Time 6:44 AM EET 4:31 PM EET
Civil Twilight 6:16 AM EET 5:00 PM EET
Nautical Twilight 5:43 AM EET 5:32 PM EET
Astronomical Twilight 5:11 AM EET 6:04 PM EET
Moon 2:32 AM EET (11/29) 2:00 PM EET (11/29)
Length of Visible Light 10h 44m
Length of Day
9h 46m
Waning Crescent, 16% of the Moon is Illuminated
Nov 29
Waning Crescent
Dec 3
New
Dec 9
First Quarter
Dec 17
Full
Dec 25
Last Quarter

Hourly Weather History & Observations

Time (EET) Temp. Windchill Dew Point Humidity Pressure Visibility Wind Dir Wind Speed Gust Speed Precip Events Conditions
12:50 AM 42.8 °F 37.0 °F 37.4 °F 81% 30.04 in 6.2 mi North 10.4 mph - N/A   Mostly Cloudy
1:50 AM 41.0 °F 35.2 °F 37.4 °F 87% 30.04 in 6.2 mi North 9.2 mph - N/A   Mostly Cloudy
2:00 AM 41 °F - 37 °F 81%  in 12 mi North 9.2 mph - -   Mostly Cloudy
2:50 AM 41.0 °F 35.2 °F 35.6 °F 81% 30.04 in 6.2 mi North 9.2 mph - N/A   Mostly Cloudy
3:50 AM 41.0 °F 34.3 °F 35.6 °F 81% 30.01 in 6.2 mi NNW 11.5 mph - N/A Rain Light Rain
4:04 AM 41.0 °F 35.8 °F 35.6 °F 81% 30.01 in 6.2 mi North 8.1 mph - N/A   Mostly Cloudy
4:50 AM 41.0 °F 35.2 °F 35.6 °F 81% 30.01 in 6.2 mi NNW 9.2 mph - N/A   Mostly Cloudy
5:00 AM 41 °F - 35 °F 72%  in 6 mi NNW 9.2 mph - - Rain Light Rain
5:32 AM 39.2 °F 31.6 °F 33.8 °F 81% 30.01 in 6.2 mi North 12.7 mph - N/A Rain Light Rain
5:50 AM 39.2 °F 32.0 °F 33.8 °F 81% 30.01 in 6.2 mi North 11.5 mph - N/A   Mostly Cloudy
6:50 AM 39.2 °F 32.5 °F 33.8 °F 81% 30.04 in 6.2 mi North 10.4 mph - N/A   Mostly Cloudy
7:50 AM 39.2 °F 31.6 °F 33.8 °F 81% 30.04 in 6.2 mi North 12.7 mph - N/A   Mostly Cloudy
8:00 AM 38 °F - 35 °F 82%  in 12 mi North 12.7 mph - -   Partly Cloudy
8:50 AM 39.2 °F 30.5 °F 33.8 °F 81% 30.04 in 6.2 mi North 16.1 mph - N/A   Mostly Cloudy
9:50 AM 39.2 °F 31.2 °F 33.8 °F 81% 30.04 in 6.2 mi North 13.8 mph - N/A   Mostly Cloudy
10:50 AM 42.8 °F 36.2 °F 33.8 °F 70% 30.04 in 6.2 mi NNE 12.7 mph - N/A   Scattered Clouds
11:00 AM 42 °F - 34 °F 65%  in 12 mi NNE 12.7 mph - -   Partly Cloudy
11:50 AM 44.6 °F 38.4 °F 33.8 °F 66% 30.04 in 6.2 mi NNE 12.7 mph - N/A   Mostly Cloudy
12:50 PM 44.6 °F 38.1 °F 32.0 °F 61% 30.01 in 6.2 mi NNE 13.8 mph - N/A   Scattered Clouds
1:50 PM 44.6 °F 41.4 °F 30.2 °F 57% 30.01 in 6.2 mi SE 5.8 mph - N/A   Scattered Clouds
2:00 PM 45 °F - 31 °F 45%  in 12 mi SE 5.8 mph - -   Partly Cloudy
2:50 PM 44.6 °F - 30.2 °F 57% 30.01 in 6.2 mi Variable 1.2 mph - N/A   Scattered Clouds
3:50 PM 44.6 °F 38.8 °F 30.2 °F 57% 30.01 in 6.2 mi WNW 11.5 mph - N/A   Scattered Clouds
4:50 PM 41.0 °F 34.3 °F 28.4 °F 61% 30.04 in 6.2 mi NW 11.5 mph - N/A   Partly Cloudy
5:00 PM 40 °F - 28 °F 50%  in 12 mi NW 11.5 mph - -   Scattered Clouds
5:50 PM 39.2 °F 30.5 °F 24.8 °F 56% 30.06 in 6.2 mi NW 16.1 mph - N/A   Partly Cloudy
6:50 PM 37.4 °F 31.4 °F 24.8 °F 60% 30.09 in - NW 8.1 mph - N/A   Clear
7:50 PM 33.8 °F - 26.6 °F 75% 30.09 in - Variable 2.3 mph - N/A   Clear
8:00 PM 33 °F - 27 °F 70%  in 6 mi NE 2.3 mph - -  
8:50 PM 32.0 °F - 26.6 °F 80% 30.12 in - NE 1.2 mph - N/A   Clear
9:50 PM 30.2 °F 26.7 °F 26.6 °F 86% 30.12 in - North 3.5 mph - N/A   Clear
10:50 PM 30.2 °F - 24.8 °F 80% 30.15 in - North 2.3 mph - N/A   Clear
11:00 PM 30 °F - 24 °F 71%  in 12 mi North 2.3 mph - -  
11:50 PM 28.4 °F - 24.8 °F 86% 30.15 in - West 2.3 mph - N/A   Clear